| time (UTC) | temp F | wind direction | speed MPH | gust MPH | rain 1hr in | rain 24hr in | rain mn in | humidity % | barometer mb |
| 20260503054534 | 38 | 0 | 0.0 | 3.0 | 0.00 | 0.03 | 0.00 | 65 | 1012.9 |
| 20260503053033 | 38 | 96 | 0.0 | 6.0 | 0.00 | 0.03 | 0.00 | 65 | 1013.1 |
| 20260503051527 | 39 | 61 | 1.0 | 3.0 | 0.00 | 0.03 | 0.00 | 66 | 1013.1 |
| 20260503050037 | 39 | 88 | 1.0 | 4.0 | 0.00 | 0.03 | 0.00 | 66 | 1013.2 |
| 20260503044528 | 39 | 42 | 0.0 | 2.0 | 0.00 | 0.05 | 0.00 | 67 | 1013.2 |
| 20260503043031 | 40 | 0 | 1.0 | 3.0 | 0.00 | 0.05 | 0.00 | 67 | 1013.2 |
| 20260503041537 | 40 | 0 | 0.0 | 3.0 | 0.00 | 0.05 | 0.00 | 64 | 1013.3 |
| 20260503040029 | 41 | 47 | 2.0 | 6.0 | 0.00 | 0.05 | 0.00 | 63 | 1013.4 |
| 20260503034531 | 41 | 67 | 2.0 | 9.0 | 0.00 | 0.05 | 0.05 | 62 | 1013.4 |
| 20260503033033 | 41 | 74 | 4.0 | 10.0 | 0.00 | 0.05 | 0.05 | 63 | 1013.5 |
| 20260503031531 | 41 | 30 | 2.0 | 6.0 | 0.00 | 0.05 | 0.05 | 67 | 1013.5 |
| 20260503030036 | 41 | 43 | 2.0 | 4.0 | 0.00 | 0.05 | 0.05 | 70 | 1013.5 |
| 20260503024530 | 41 | 73 | 2.0 | 5.0 | 0.00 | 0.05 | 0.05 | 72 | 1013.6 |
| 20260503023031 | 41 | 78 | 3.0 | 6.0 | 0.00 | 0.05 | 0.05 | 71 | 1013.6 |
| 20260503021529 | 41 | 56 | 4.0 | 9.0 | 0.00 | 0.05 | 0.05 | 71 | 1013.6 |
| 20260503020030 | 41 | 32 | 3.0 | 8.0 | 0.00 | 0.05 | 0.05 | 72 | 1013.5 |
| 20260503014530 | 41 | 32 | 4.0 | 9.0 | 0.00 | 0.08 | 0.05 | 72 | 1013.4 |
| 20260503013032 | 41 | 63 | 4.0 | 9.0 | 0.00 | 0.08 | 0.05 | 73 | 1013.4 |
| 20260503011530 | 42 | 42 | 5.0 | 11.0 | 0.00 | 0.08 | 0.05 | 73 | 1013.3 |
| 20260503010032 | 42 | 55 | 4.0 | 9.0 | 0.00 | 0.08 | 0.05 | 72 | 1013.3 |
| 20260503004528 | 42 | 67 | 2.0 | 9.0 | 0.00 | 0.10 | 0.05 | 71 | 1013.2 |
| 20260503003028 | 42 | 86 | 2.0 | 7.0 | 0.00 | 0.10 | 0.05 | 70 | 1012.9 |
| 20260503001528 | 42 | 89 | 3.0 | 9.0 | 0.00 | 0.10 | 0.05 | 69 | 1012.8 |
| 20260503000029 | 42 | 96 | 2.0 | 6.0 | 0.00 | 0.10 | 0.05 | 70 | 1012.8 |
| 20260502234532 | 43 | 66 | 3.0 | 7.0 | 0.00 | 0.11 | 0.05 | 70 | 1012.8 |
| 20260502233029 | 43 | 80 | 2.0 | 7.0 | 0.00 | 0.11 | 0.05 | 69 | 1012.7 |
| 20260502231527 | 43 | 0 | 2.0 | 8.0 | 0.00 | 0.11 | 0.05 | 72 | 1012.7 |
| 20260502230034 | 43 | 83 | 2.0 | 4.0 | 0.00 | 0.11 | 0.05 | 70 | 1012.6 |
| 20260502224532 | 44 | 52 | 3.0 | 7.0 | 0.00 | 0.11 | 0.05 | 69 | 1012.5 |
| 20260502223028 | 44 | 80 | 4.0 | 8.0 | 0.00 | 0.11 | 0.05 | 70 | 1012.5 |
| 20260502221532 | 44 | 134 | 0.0 | 5.0 | 0.00 | 0.11 | 0.05 | 71 | 1012.4 |
| 20260502220030 | 44 | 63 | 3.0 | 6.0 | 0.00 | 0.11 | 0.05 | 72 | 1012.5 |
| 20260502214528 | 43 | 110 | 4.0 | 7.0 | 0.00 | 0.12 | 0.05 | 70 | 1012.4 |
| 20260502213030 | 43 | 116 | 4.0 | 9.0 | 0.00 | 0.12 | 0.05 | 71 | 1012.4 |
| 20260502211530 | 43 | 112 | 4.0 | 10.0 | 0.00 | 0.12 | 0.05 | 71 | 1012.4 |
| 20260502210030 | 43 | 103 | 3.0 | 11.0 | 0.00 | 0.12 | 0.05 | 73 | 1012.3 |
| 20260502204530 | 43 | 0 | 2.0 | 8.0 | 0.00 | 0.18 | 0.05 | 72 | 1012.3 |
| 20260502203029 | 43 | 38 | 4.0 | 11.0 | 0.00 | 0.18 | 0.05 | 71 | 1012.4 |
| 20260502201530 | 44 | 121 | 4.0 | 11.0 | 0.00 | 0.18 | 0.05 | 70 | 1012.3 |
| 20260502200028 | 46 | 106 | 2.0 | 8.0 | 0.00 | 0.18 | 0.05 | 61 | 1012.2 |
| 20260502194528 | 46 | 25 | 4.0 | 6.0 | 0.00 | 0.18 | 0.05 | 60 | 1012.3 |
| 20260502193030 | 46 | 360 | 2.0 | 8.0 | 0.00 | 0.18 | 0.05 | 62 | 1012.4 |
| 20260502191529 | 46 | 113 | 4.0 | 9.0 | 0.00 | 0.18 | 0.05 | 58 | 1012.7 |
| 20260502190034 | 46 | 108 | 4.0 | 9.0 | 0.00 | 0.18 | 0.05 | 60 | 1012.9 |
| 20260502184537 | 46 | 107 | 7.0 | 12.0 | 0.00 | 0.18 | 0.05 | 57 | 1013.1 |
| 20260502183031 | 46 | 42 | 4.0 | 9.0 | 0.00 | 0.18 | 0.05 | 57 | 1013.1 |
| 20260502181539 | 46 | 79 | 5.0 | 15.0 | 0.00 | 0.18 | 0.05 | 58 | 1013.1 |
| 20260502163028 | 47 | 100 | 5.0 | 10.0 | 0.00 | 0.18 | 0.05 | 55 | 1013.3 |
| 20260502161528 | 46 | 51 | 8.0 | 13.0 | 0.00 | 0.18 | 0.05 | 57 | 1013.4 |
| 20260502151533 | 45 | 68 | 5.0 | 11.0 | 0.00 | 0.18 | 0.05 | 60 | 1013.5 |
| 20260502123034 | 38 | 47 | 5.0 | 10.0 | 0.00 | 0.18 | 0.05 | 82 | 1014.1 |
| 20260502121541 | 38 | 39 | 5.0 | 10.0 | 0.00 | 0.18 | 0.05 | 85 | 1014.3 |
| 20260502114531 | 37 | 58 | 2.0 | 5.0 | 0.00 | 0.18 | 0.05 | 88 | 1013.9 |
| 20260502113027 | 36 | 5 | 2.0 | 6.0 | 0.00 | 0.18 | 0.05 | 90 | 1013.9 |
| 20260502111528 | 35 | 0 | 2.0 | 4.0 | 0.00 | 0.18 | 0.05 | 93 | 1014.0 |
| 20260502110030 | 34 | 42 | 2.0 | 6.0 | 0.00 | 0.18 | 0.05 | 94 | 1013.8 |
| 20260502104528 | 34 | 47 | 3.0 | 5.0 | 0.00 | 0.18 | 0.05 | 94 | 1013.8 |
| 20260502103032 | 34 | 49 | 3.0 | 7.0 | 0.00 | 0.18 | 0.05 | 94 | 1013.9 |
| 20260502101540 | 33 | 65 | 0.0 | 2.0 | 0.00 | 0.18 | 0.05 | 93 | 1013.7 |
| 20260502091528 | 36 | 0 | 0.0 | 1.0 | 0.00 | 0.18 | 0.05 | 93 | 1013.4 |
| 20260502071530 | 38 | 0 | 0.0 | 1.0 | 0.01 | 0.18 | 0.05 | 90 | 1012.6 |
| 20260502070028 | 39 | 22 | 0.0 | 4.0 | 0.01 | 0.18 | 0.05 | 89 | 1012.5 |
| 20260502064527 | 38 | 36 | 1.0 | 4.0 | 0.01 | 0.18 | 0.05 | 89 | 1012.5 |
| 20260502063029 | 39 | 11 | 1.0 | 5.0 | 0.02 | 0.18 | 0.05 | 90 | 1012.6 |
| 20260502061526 | 39 | 348 | 0.0 | 5.0 | 0.01 | 0.17 | 0.04 | 88 | 1012.7 |
| 20260502060030 | 40 | 92 | 6.0 | 14.0 | 0.02 | 0.17 | 0.04 | 88 | 1012.8 |